KLS014 WIII-WAGI

Flight info

Callsign KLS014
Flight time 1h 4m
Altitude 31000
Route EGUKO W15 TAVIP
Aircraft E195/M-SDE3GILORVW/S

Departure

Time 2026-05-08 09:17
Airport Soekarno-Hatta International Airport (WIII)

Arrival

Time 2026-05-08 10:22
Airport Iskandar Airport (WAGI)
Time Latitude Longitude Altitude Speed Heading
2026-05-08 08:56 -6.13227 106.65758 46 ft 0 kts 278°
2026-05-08 09:04 -6.13226 106.65758 46 ft 0 kts 278°
2026-05-08 09:04 -6.13227 106.65762 46 ft 2 kts 278°
2026-05-08 09:05 -6.13229 106.65777 46 ft 2 kts 278°
2026-05-08 09:05 -6.13231 106.65792 46 ft 2 kts 278°
2026-05-08 09:05 -6.13233 106.65802 46 ft 1 kts 278°
2026-05-08 09:05 -6.13231 106.65816 46 ft 2 kts 239°
2026-05-08 09:06 -6.13220 106.65826 46 ft 2 kts 200°
2026-05-08 09:06 -6.13213 106.65827 46 ft 0 kts 186°
2026-05-08 09:09 -6.13214 106.65827 46 ft 0 kts 187°
2026-05-08 09:09 -6.13234 106.65824 46 ft 4 kts 190°
2026-05-08 09:10 -6.13283 106.65816 46 ft 9 kts 188°
2026-05-08 09:10 -6.13349 106.65822 46 ft 8 kts 157°
2026-05-08 09:10 -6.13403 106.65845 46 ft 8 kts 157°
2026-05-08 09:10 -6.13463 106.65848 46 ft 9 kts 222°
2026-05-08 09:11 -6.13494 106.65791 46 ft 9 kts 249°
2026-05-08 09:11 -6.13519 106.65724 46 ft 10 kts 250°
2026-05-08 09:11 -6.13547 106.65655 46 ft 11 kts 247°
2026-05-08 09:11 -6.13579 106.65576 46 ft 12 kts 249°
2026-05-08 09:12 -6.13616 106.65484 46 ft 15 kts 248°
2026-05-08 09:12 -6.13663 106.65369 46 ft 19 kts 249°
2026-05-08 09:12 -6.13711 106.65237 46 ft 20 kts 248°
2026-05-08 09:12 -6.13767 106.65102 46 ft 21 kts 249°
2026-05-08 09:13 -6.13824 106.64964 46 ft 21 kts 250°
2026-05-08 09:13 -6.13880 106.64819 46 ft 22 kts 248°
2026-05-08 09:13 -6.13940 106.64669 46 ft 23 kts 248°
2026-05-08 09:13 -6.13993 106.64535 46 ft 18 kts 249°
2026-05-08 09:14 -6.14029 106.64444 46 ft 12 kts 248°
2026-05-08 09:14 -6.14063 106.64359 46 ft 13 kts 249°
2026-05-08 09:14 -6.14095 106.64311 46 ft 8 kts 218°
2026-05-08 09:14 -6.14150 106.64298 46 ft 8 kts 167°
2026-05-08 09:15 -6.14190 106.64321 46 ft 3 kts 139°
2026-05-08 09:15 -6.14208 106.64344 46 ft 4 kts 126°
2026-05-08 09:15 -6.14232 106.64376 46 ft 6 kts 126°
2026-05-08 09:15 -6.14237 106.64407 46 ft 4 kts 68°
2026-05-08 09:16 -6.14236 106.64411 46 ft 0 kts 67°
2026-05-08 09:16 -6.14217 106.64456 46 ft 27 kts 67°
2026-05-08 09:16 -6.14067 106.64829 46 ft 85 kts 70°
2026-05-08 09:16 -6.13786 106.65539 46 ft 133 kts 66°
2026-05-08 09:17 -6.13393 106.66534 65 ft 167 kts 67°
2026-05-08 09:17 -6.12975 106.67666 374 ft 176 kts 66°
2026-05-08 09:17 -6.12521 106.68783 884 ft 176 kts 65°
2026-05-08 09:17 -6.12057 106.69909 1429 ft 168 kts 65°
2026-05-08 09:18 -6.11614 106.71001 1860 ft 172 kts 66°
2026-05-08 09:18 -6.11152 106.72150 1970 ft 180 kts 67°
2026-05-08 09:18 -6.10676 106.73359 2064 ft 191 kts 74°
2026-05-08 09:18 -6.10548 106.74699 2255 ft 197 kts 88°
2026-05-08 09:19 -6.10264 106.76043 2429 ft 200 kts 53°
2026-05-08 09:19 -6.09335 106.77132 2689 ft 214 kts 50°
2026-05-08 09:19 -6.08384 106.78307 2957 ft 218 kts 53°
2026-05-08 09:19 -6.07472 106.79530 3148 ft 224 kts 55°
2026-05-08 09:20 -6.06527 106.80862 3363 ft 246 kts 56°
2026-05-08 09:20 -6.05507 106.82338 3616 ft 268 kts 56°
2026-05-08 09:20 -6.04439 106.83905 3831 ft 271 kts 56°
2026-05-08 09:20 -6.03362 106.85500 4117 ft 282 kts 56°
2026-05-08 09:21 -6.02266 106.87127 4940 ft 283 kts 56°
2026-05-08 09:21 -6.01194 106.88723 5873 ft 274 kts 56°
2026-05-08 09:22 -5.94833 106.98196 8520 ft 285 kts 57°
2026-05-08 09:23 -5.93739 106.99826 9006 ft 284 kts 57°
2026-05-08 09:23 -5.92624 107.01487 9500 ft 290 kts 57°
2026-05-08 09:23 -5.91483 107.03186 10005 ft 297 kts 57°
2026-05-08 09:23 -5.90321 107.04916 10549 ft 303 kts 57°
2026-05-08 09:24 -5.89131 107.06689 11152 ft 305 kts 57°
2026-05-08 09:24 -5.87940 107.08461 11622 ft 312 kts 57°
2026-05-08 09:24 -5.86715 107.10284 11993 ft 321 kts 57°
2026-05-08 09:24 -5.85440 107.12183 12426 ft 328 kts 57°
2026-05-08 09:25 -5.84157 107.14092 12920 ft 332 kts 57°
2026-05-08 09:25 -5.82869 107.16009 13490 ft 333 kts 57°
2026-05-08 09:25 -5.81578 107.17930 14052 ft 334 kts 57°
2026-05-08 09:25 -5.80277 107.19864 14572 ft 335 kts 57°
2026-05-08 09:26 -5.78970 107.21809 15043 ft 338 kts 57°
2026-05-08 09:26 -5.77638 107.23792 15483 ft 341 kts 57°
2026-05-08 09:26 -5.76312 107.25763 15906 ft 344 kts 57°
2026-05-08 09:26 -5.74968 107.27762 16324 ft 347 kts 57°
2026-05-08 09:27 -5.73618 107.29770 16741 ft 349 kts 57°
2026-05-08 09:27 -5.72262 107.31786 17180 ft 350 kts 57°
2026-05-08 09:27 -5.70893 107.33822 17597 ft 352 kts 57°
2026-05-08 09:27 -5.69515 107.35870 18001 ft 354 kts 57°
2026-05-08 09:28 -5.68130 107.37929 18364 ft 357 kts 57°
2026-05-08 09:28 -5.66740 107.39994 18715 ft 359 kts 57°
2026-05-08 09:28 -5.65337 107.42080 19046 ft 362 kts 57°
2026-05-08 09:28 -5.63927 107.44176 19372 ft 365 kts 57°
2026-05-08 09:29 -5.62496 107.46301 19715 ft 367 kts 57°
2026-05-08 09:29 -5.61057 107.48439 20040 ft 369 kts 57°
2026-05-08 09:29 -5.59616 107.50581 20353 ft 372 kts 57°
2026-05-08 09:29 -5.58163 107.52739 20662 ft 374 kts 57°
2026-05-08 09:30 -5.56719 107.54884 20951 ft 376 kts 57°
2026-05-08 09:30 -5.55239 107.57081 21242 ft 379 kts 57°
2026-05-08 09:30 -5.53766 107.59269 21538 ft 380 kts 57°
2026-05-08 09:30 -5.52283 107.61472 21852 ft 381 kts 57°
2026-05-08 09:31 -5.50797 107.63678 22165 ft 384 kts 57°
2026-05-08 09:31 -5.49294 107.65909 22492 ft 387 kts 56°
2026-05-08 09:31 -5.47777 107.68160 22823 ft 388 kts 57°
2026-05-08 09:31 -5.46264 107.70406 23153 ft 390 kts 57°
2026-05-08 09:32 -5.44747 107.72657 23485 ft 391 kts 57°
2026-05-08 09:32 -5.43225 107.74915 23821 ft 394 kts 57°
2026-05-08 09:32 -5.41693 107.77188 24162 ft 394 kts 57°
2026-05-08 09:32 -5.40147 107.79482 24554 ft 399 kts 57°
2026-05-08 09:33 -5.38593 107.81787 25023 ft 397 kts 57°
2026-05-08 09:33 -5.37068 107.84049 25245 ft 392 kts 57°
2026-05-08 09:33 -5.35508 107.86363 25254 ft 394 kts 57°
2026-05-08 09:33 -5.33965 107.88650 25262 ft 400 kts 57°
2026-05-08 09:34 -5.32410 107.90956 25432 ft 401 kts 57°
2026-05-08 09:34 -5.30844 107.93278 25958 ft 401 kts 57°
2026-05-08 09:34 -5.29287 107.95586 26459 ft 401 kts 57°
2026-05-08 09:34 -5.27735 107.97887 26962 ft 400 kts 57°
2026-05-08 09:35 -5.26163 108.00217 27293 ft 405 kts 57°
2026-05-08 09:35 -5.24568 108.02581 27580 ft 410 kts 57°
2026-05-08 09:35 -5.22957 108.04968 27864 ft 411 kts 57°
2026-05-08 09:35 -5.21363 108.07330 27974 ft 409 kts 57°
2026-05-08 09:36 -5.19775 108.09682 28047 ft 414 kts 57°
2026-05-08 09:36 -5.18142 108.12103 28429 ft 416 kts 57°
2026-05-08 09:36 -5.16516 108.14510 28784 ft 419 kts 57°
2026-05-08 09:36 -5.14902 108.16906 29132 ft 421 kts 57°
2026-05-08 09:37 -5.13246 108.19354 29497 ft 424 kts 57°
2026-05-08 09:37 -5.11580 108.21820 29855 ft 426 kts 57°
2026-05-08 09:37 -5.09910 108.24293 30202 ft 429 kts 56°
2026-05-08 09:37 -5.08235 108.26771 30493 ft 432 kts 57°
2026-05-08 09:38 -5.06549 108.29268 30767 ft 436 kts 56°
2026-05-08 09:38 -5.03081 108.34401 30807 ft 454 kts 56°
2026-05-08 09:39 -4.99488 108.39716 30800 ft 465 kts 56°
2026-05-08 09:39 -4.95866 108.45075 30799 ft 464 kts 56°
2026-05-08 09:40 -4.92224 108.50461 30798 ft 462 kts 56°
2026-05-08 09:40 -4.88604 108.55814 30797 ft 464 kts 56°
2026-05-08 09:41 -4.85005 108.61134 30801 ft 465 kts 56°
2026-05-08 09:41 -4.81351 108.66534 30810 ft 464 kts 56°
2026-05-08 09:42 -4.77731 108.71884 30821 ft 466 kts 56°
2026-05-08 09:42 -4.74088 108.77265 30819 ft 466 kts 56°
2026-05-08 09:43 -4.70632 108.82729 30815 ft 465 kts 64°
2026-05-08 09:43 -4.67869 108.88564 30815 ft 463 kts 65°
2026-05-08 09:44 -4.65104 108.94383 30810 ft 464 kts 65°
2026-05-08 09:44 -4.62335 109.00204 30806 ft 463 kts 65°
2026-05-08 09:45 -4.59564 109.06027 30801 ft 463 kts 65°
2026-05-08 09:45 -4.56784 109.11868 30800 ft 464 kts 65°
2026-05-08 09:46 -4.54006 109.17704 30800 ft 463 kts 65°
2026-05-08 09:46 -4.51249 109.23494 30800 ft 462 kts 65°
2026-05-08 09:47 -4.48487 109.29295 30800 ft 464 kts 65°
2026-05-08 09:47 -4.45699 109.35148 30801 ft 463 kts 65°
2026-05-08 09:48 -4.42928 109.40962 30800 ft 464 kts 65°
2026-05-08 09:48 -4.40149 109.46793 30800 ft 465 kts 65°
2026-05-08 09:49 -4.37369 109.52625 30799 ft 463 kts 65°
2026-05-08 09:49 -4.34586 109.58462 30800 ft 464 kts 65°
2026-05-08 09:50 -4.31811 109.64280 30799 ft 464 kts 65°
2026-05-08 09:50 -4.29036 109.70097 30803 ft 463 kts 65°
2026-05-08 09:51 -4.26249 109.75938 30803 ft 464 kts 65°
2026-05-08 09:51 -4.23475 109.81750 30802 ft 465 kts 65°
2026-05-08 09:52 -4.20696 109.87571 30800 ft 459 kts 65°
2026-05-08 09:52 -4.19333 109.90424 30794 ft 446 kts 65°
2026-05-08 09:52 -4.18009 109.93198 30701 ft 446 kts 65°
2026-05-08 09:52 -4.16664 109.96014 30216 ft 445 kts 65°
2026-05-08 09:53 -4.15343 109.98779 29736 ft 441 kts 65°
2026-05-08 09:53 -4.14017 110.01556 29247 ft 436 kts 65°
2026-05-08 09:53 -4.12712 110.04287 28769 ft 432 kts 66°
2026-05-08 09:53 -4.11426 110.06980 28296 ft 429 kts 65°
2026-05-08 09:54 -4.10147 110.09656 27832 ft 427 kts 65°
2026-05-08 09:54 -4.08869 110.12331 27361 ft 423 kts 65°
2026-05-08 09:54 -4.07602 110.14982 26892 ft 420 kts 65°
2026-05-08 09:54 -4.06355 110.17591 26436 ft 417 kts 65°
2026-05-08 09:55 -4.05115 110.20184 25978 ft 413 kts 65°
2026-05-08 09:55 -4.03869 110.22794 25513 ft 410 kts 65°
2026-05-08 09:55 -4.02658 110.25325 25071 ft 407 kts 65°
2026-05-08 09:55 -4.01436 110.27882 24620 ft 405 kts 65°
2026-05-08 09:56 -4.00221 110.30421 24174 ft 402 kts 64°
2026-05-08 09:56 -3.99016 110.32942 23729 ft 399 kts 64°
2026-05-08 09:56 -3.97825 110.35430 23292 ft 395 kts 64°
2026-05-08 09:56 -3.96642 110.37879 22859 ft 393 kts 61°
2026-05-08 09:57 -3.93566 110.42342 22735 ft 390 kts 54°
2026-05-08 09:57 -3.91980 110.44563 22736 ft 392 kts 54°
2026-05-08 09:57 -3.90395 110.46779 22733 ft 393 kts 54°
2026-05-08 09:58 -3.88795 110.49017 22732 ft 392 kts 54°
2026-05-08 09:58 -3.87221 110.51218 22730 ft 393 kts 54°
2026-05-08 09:58 -3.85621 110.53455 22728 ft 393 kts 54°
2026-05-08 09:58 -3.84033 110.55675 22727 ft 393 kts 54°
2026-05-08 09:59 -3.82418 110.57932 22726 ft 393 kts 54°
2026-05-08 09:59 -3.80836 110.60144 22723 ft 393 kts 54°
2026-05-08 09:59 -3.79236 110.62380 22721 ft 392 kts 54°
2026-05-08 09:59 -3.77666 110.64574 22720 ft 394 kts 54°
2026-05-08 10:00 -3.76056 110.66824 22721 ft 393 kts 54°
2026-05-08 10:00 -3.74479 110.69029 22723 ft 393 kts 54°
2026-05-08 10:00 -3.72870 110.71277 22725 ft 394 kts 54°
2026-05-08 10:00 -3.71296 110.73476 22727 ft 392 kts 54°
2026-05-08 10:01 -3.69698 110.75709 22727 ft 393 kts 54°
2026-05-08 10:01 -3.68122 110.77910 22729 ft 393 kts 54°
2026-05-08 10:01 -3.66514 110.80157 22731 ft 392 kts 54°
2026-05-08 10:01 -3.64917 110.82388 22732 ft 393 kts 54°
2026-05-08 10:02 -3.63337 110.84595 22733 ft 394 kts 54°
2026-05-08 10:02 -3.61741 110.86824 22518 ft 395 kts 54°
2026-05-08 10:02 -3.60132 110.89072 22099 ft 392 kts 54°
2026-05-08 10:02 -3.58549 110.91281 21676 ft 389 kts 54°
2026-05-08 10:03 -3.56979 110.93475 21247 ft 386 kts 54°
2026-05-08 10:03 -3.55440 110.95623 20827 ft 383 kts 54°
2026-05-08 10:03 -3.53888 110.97790 20406 ft 380 kts 55°
2026-05-08 10:03 -3.52349 110.99938 19985 ft 378 kts 55°
2026-05-08 10:04 -3.50840 111.02044 19573 ft 375 kts 55°
2026-05-08 10:04 -3.49308 111.04183 19151 ft 374 kts 55°
2026-05-08 10:04 -3.47809 111.06276 18742 ft 372 kts 55°
2026-05-08 10:04 -3.46308 111.08370 18335 ft 370 kts 55°
2026-05-08 10:05 -3.44808 111.10464 17920 ft 369 kts 55°
2026-05-08 10:05 -3.43333 111.12523 17520 ft 367 kts 55°
2026-05-08 10:05 -3.41833 111.14616 17111 ft 365 kts 56°
2026-05-08 10:05 -3.40378 111.16647 16707 ft 363 kts 55°
2026-05-08 10:06 -3.38904 111.18703 16308 ft 361 kts 55°
2026-05-08 10:06 -3.37447 111.20735 15914 ft 359 kts 55°
2026-05-08 10:06 -3.36000 111.22754 15513 ft 356 kts 55°
2026-05-08 10:06 -3.34567 111.24753 15122 ft 354 kts 55°
2026-05-08 10:07 -3.33132 111.26755 14736 ft 352 kts 55°
2026-05-08 10:07 -3.31713 111.28735 14345 ft 350 kts 55°
2026-05-08 10:07 -3.30295 111.30713 13955 ft 348 kts 55°
2026-05-08 10:07 -3.28882 111.32684 13572 ft 345 kts 55°
2026-05-08 10:08 -3.27494 111.34619 13190 ft 343 kts 55°
2026-05-08 10:08 -3.26105 111.36557 12812 ft 342 kts 55°
2026-05-08 10:08 -3.24728 111.38477 12595 ft 341 kts 55°
2026-05-08 10:08 -3.23337 111.40417 12234 ft 341 kts 55°
2026-05-08 10:09 -3.21975 111.42316 11865 ft 339 kts 55°
2026-05-08 10:09 -3.20601 111.44231 11486 ft 334 kts 55°
2026-05-08 10:09 -3.19269 111.46087 11123 ft 326 kts 55°
2026-05-08 10:09 -3.17964 111.47907 10757 ft 317 kts 56°
2026-05-08 10:10 -3.16698 111.49672 10412 ft 308 kts 56°
2026-05-08 10:10 -3.15458 111.51400 10098 ft 300 kts 56°
2026-05-08 10:10 -3.14267 111.53060 9769 ft 293 kts 56°
2026-05-08 10:10 -3.13082 111.54713 9434 ft 289 kts 56°
2026-05-08 10:11 -3.11912 111.56343 9117 ft 287 kts 56°
2026-05-08 10:11 -3.10749 111.57965 8801 ft 287 kts 56°
2026-05-08 10:11 -3.09577 111.59553 8530 ft 286 kts 53°
2026-05-08 10:11 -3.08327 111.61124 8247 ft 286 kts 53°
2026-05-08 10:12 -3.07091 111.62676 7934 ft 285 kts 53°
2026-05-08 10:12 -3.05861 111.64221 7618 ft 282 kts 53°
2026-05-08 10:12 -3.04642 111.65752 7312 ft 279 kts 54°
2026-05-08 10:12 -3.03438 111.67265 7006 ft 277 kts 54°
2026-05-08 10:13 -3.02255 111.68750 6698 ft 270 kts 54°
2026-05-08 10:13 -3.01091 111.70212 6398 ft 264 kts 54°
2026-05-08 10:13 -2.99965 111.71627 6108 ft 258 kts 54°
2026-05-08 10:13 -2.98863 111.73010 5826 ft 252 kts 54°
2026-05-08 10:14 -2.97774 111.74379 5548 ft 246 kts 54°
2026-05-08 10:14 -2.96728 111.75693 5315 ft 239 kts 54°
2026-05-08 10:14 -2.95709 111.76971 5086 ft 229 kts 54°
2026-05-08 10:14 -2.94710 111.78127 5043 ft 212 kts 52°
2026-05-08 10:15 -2.93773 111.79191 4993 ft 196 kts 53°
2026-05-08 10:15 -2.92882 111.80203 4951 ft 188 kts 53°
2026-05-08 10:15 -2.92015 111.81190 4949 ft 189 kts 53°
2026-05-08 10:15 -2.91150 111.82173 4958 ft 191 kts 53°
2026-05-08 10:16 -2.90266 111.83178 4948 ft 191 kts 53°
2026-05-08 10:16 -2.89378 111.84186 4821 ft 193 kts 53°
2026-05-08 10:16 -2.88313 111.85022 4620 ft 201 kts 20°
2026-05-08 10:16 -2.86904 111.84930 4421 ft 213 kts 336°
2026-05-08 10:17 -2.85784 111.83969 4175 ft 216 kts 313°
2026-05-08 10:17 -2.84769 111.82847 3892 ft 215 kts 313°
2026-05-08 10:17 -2.83800 111.81733 3641 ft 214 kts 312°
2026-05-08 10:17 -2.82797 111.80617 3375 ft 212 kts 313°
2026-05-08 10:18 -2.81799 111.79526 3120 ft 211 kts 313°
2026-05-08 10:18 -2.80821 111.78463 2851 ft 208 kts 314°
2026-05-08 10:18 -2.79845 111.77406 2570 ft 206 kts 314°
2026-05-08 10:18 -2.78876 111.76357 2293 ft 200 kts 314°
2026-05-08 10:19 -2.77963 111.75369 2013 ft 188 kts 314°
2026-05-08 10:19 -2.77109 111.74446 1813 ft 174 kts 314°
2026-05-08 10:19 -2.76315 111.73588 1565 ft 163 kts 313°
2026-05-08 10:20 -2.74906 111.72063 1160 ft 141 kts 313°
2026-05-08 10:20 -2.74237 111.71339 993 ft 141 kts 314°
2026-05-08 10:20 -2.73574 111.70622 820 ft 140 kts 314°
2026-05-08 10:20 -2.72915 111.69910 638 ft 139 kts 314°
2026-05-08 10:21 -2.72261 111.69202 449 ft 137 kts 314°
2026-05-08 10:21 -2.71617 111.68511 240 ft 135 kts 313°
2026-05-08 10:21 -2.70979 111.67819 83 ft 134 kts 313°
2026-05-08 10:21 -2.70397 111.67193 81 ft 103 kts 312°
2026-05-08 10:22 -2.70024 111.66785 81 ft 46 kts 313°
2026-05-08 10:22 -2.69930 111.66652 81 ft 10 kts 312°
2026-05-08 10:22 -2.69922 111.66668 81 ft 5 kts 120°
2026-05-08 10:22 -2.69951 111.66705 81 ft 7 kts 133°
2026-05-08 10:23 -2.69991 111.66748 81 ft 9 kts 131°
2026-05-08 10:23 -2.70043 111.66805 81 ft 12 kts 132°
2026-05-08 10:23 -2.70102 111.66868 81 ft 7 kts 148°
2026-05-08 10:23 -2.70151 111.66859 81 ft 5 kts 220°
2026-05-08 10:24 -2.70182 111.66833 81 ft 6 kts 219°
2026-05-08 10:24 -2.70217 111.66834 81 ft 4 kts 131°
2026-05-08 10:24 -2.70239 111.66858 81 ft 5 kts 132°
2026-05-08 10:24 -2.70273 111.66895 81 ft 8 kts 132°
2026-05-08 10:25 -2.70295 111.66914 81 ft 1 kts 182°
2026-05-08 10:25 -2.70301 111.66911 81 ft 1 kts 198°
2026-05-08 10:25 -2.70314 111.66904 81 ft 0 kts 219°
2026-05-08 10:25 -2.70315 111.66904 81 ft 0 kts 219°